[[{"header":{"parameterUnit":"m.s-1","parameterCategory":1,"la1":30.2991,"la2":30.254,"lo1":-89.0895,"lo2":-89.0444,"dy":0.0017,"dx":0.0017,"nx":28,"ny":28,"refTime":"2024-06-01T21:00:00:Z","depth":0,"parameterNumber":2,"parameterNumberName":"U-component_of_WINDS"},"data":[0,0,0,0,0,0,0,0,0,0,0,0,0,0,0,0,0,0,0,0,0,0,0,0,0,0,0,0,0,0,0,0,0,0,0,0,0,0,0,0,0,0,0,0,0,0,0,0,0,0,0,0,0,0,0,0,0,0,-2.1803,-2.1802,0,-2.1672,-2.167,-2.1669,-2.1526,-2.1524,-2.1522,-2.152,-2.1384,-2.1382,-2.1381,0,0,0,0,0,0,0,0,0,0,0,0,0,-2.1926,-2.1925,-2.1803,-2.1802,-2.18,-2.1672,-2.167,-2.1668,-2.1526,-2.1524,-2.1521,-2.1519,-2.1385,-2.1383,-2.1381,0,0,0,0,0,0,0,0,0,0,0,0,0,-2.1842,-2.1924,-2.1804,-2.1714,-2.1704,-2.1672,-2.167,-2.1668,-2.1527,-2.1523,-2.152,-2.1518,-2.1385,-2.1383,-2.138,-2.1426,0,0,-2.1373,-2.1371,0,0,0,0,0,0,0,0,-2.1847,-2.1837,-2.1728,-2.172,-2.1709,-2.1612,-2.1663,-2.1587,-2.1527,-2.1594,-2.152,-2.1516,-2.1462,-2.1453,-2.1435,-2.142,-2.1414,-2.1372,-2.1371,-2.137,-2.1369,0,0,0,0,0,0,0,-2.1853,-2.1842,-2.1751,-2.1727,-2.1715,-2.1678,-2.1663,-2.1648,-2.1547,-2.1588,-2.1577,-2.1564,-2.1456,-2.1438,-2.1431,-2.1412,-2.1372,-2.137,-2.1369,-2.1368,-2.142,-2.1423,0,0,0,0,0,0,-2.1873,-2.1848,-2.1755,-2.1747,-2.1772,-2.1678,-2.1661,-2.1646,-2.1547,-2.1529,-2.1566,-2.1558,-2.1444,-2.1434,-2.1426,-2.1468,-2.137,-2.1367,-2.1366,-2.1417,-2.1421,-2.1424,0,0,0,0,0,0,-2.1876,-2.1866,-2.1761,-2.1795,-2.1778,-2.168,-2.1664,-2.1645,-2.1627,-2.1531,-2.1511,-2.1567,-2.1441,-2.1429,-2.1425,-2.1462,-2.1366,-2.1364,-2.1414,-2.1418,-2.1422,-2.1558,0,0,0,0,0,0,-2.188,-2.1868,-2.1886,-2.1796,-2.1777,-2.1765,-2.1666,-2.1645,-2.1623,-2.161,-2.1526,-2.1509,-2.1438,-2.143,-2.1423,-2.1457,-2.1362,-2.141,-2.1416,-2.1421,-2.1549,-2.1566,-2.158,0,0,0,0,0,-2.1885,-2.1931,-2.1888,-2.1877,-2.1798,-2.1768,-2.1756,-2.1674,-2.1627,-2.1642,-2.1579,-2.1511,-2.1459,-2.1431,-2.1422,-2.1455,-2.1407,-2.1414,-2.142,-2.1542,-2.1563,-2.158,0,0,0,0,0,0,-2.2028,-2.1917,-2.1869,-2.1887,-2.1837,-2.1744,-2.1762,-2.1699,-2.1663,-2.1652,-2.1551,-2.1533,-2.154,-2.1497,-2.1468,-2.1491,-2.1423,-2.1428,-2.1519,-2.1537,-2.1553,-2.1562,-2.136,0,0,0,0,0,-2.2062,-2.2048,-2.1951,-2.1976,-2.1954,-2.1862,-2.1846,-2.1786,-2.1731,-2.171,-2.1647,-2.1595,-2.1565,-2.1549,-2.1518,-2.1542,-2.1519,-2.156,-2.1575,-2.1588,-2.1594,-2.1597,-2.1613,-2.1445,-2.1445,-2.1445,0,0,-2.2132,-2.2069,-2.2067,-2.2003,-2.1958,-2.1943,-2.1846,-2.1836,-2.1823,-2.1708,-2.17,-2.1651,-2.1586,-2.1595,-2.1596,-2.156,-2.1634,-2.1597,-2.1608,-2.1606,-2.1606,-2.1622,-2.1636,-2.145,-2.1449,-2.1448,0,0,-2.2251,-2.2203,-2.2217,-2.2172,-2.2105,-2.2042,-2.2046,-2.196,-2.1923,-2.1912,-2.1824,-2.1806,-2.176,-2.1716,-2.1687,-2.1783,-2.1717,-2.1775,-2.1856,-2.1861,-2.1874,-2.1885,-2.1915,-2.1928,-2.1781,-2.1781,-2.1781,0,-2.2346,-2.2321,-2.2232,-2.2225,-2.2198,-2.2092,-2.2102,-2.2064,-2.1989,-2.1972,-2.1932,-2.1867,-2.1816,-2.1811,-2.1833,-2.1815,-2.1812,-2.1785,-2.1879,-2.189,-2.1899,-2.1926,-2.1938,-2.1788,-2.1788,-2.1787,-2.1786,0,-2.244,-2.2423,-2.2442,-2.2371,-2.2346,-2.2349,-2.2257,-2.2242,-2.2183,-2.2124,-2.2111,-2.2046,-2.1996,-2.199,-2.1934,-2.1975,-2.1954,-2.1898,-2.1828,-2.1923,-2.1947,-2.1957,-2.1799,-2.1796,-2.1794,-2.1792,0,0,-2.2649,-2.2524,-2.2533,-2.2497,-2.2411,-2.2396,-2.2391,-2.2343,-2.233,-2.228,-2.2271,-2.2232,-2.2177,-2.2145,-2.2081,-2.2086,-2.216,-2.2028,-2.2025,-2.2052,-2.2195,-2.2237,-2.2251,-2.2115,-2.2117,-2.2118,-2.2199,0,-2.2751,-2.2738,-2.2654,-2.2664,-2.2645,-2.2541,-2.2536,-2.2481,-2.2425,-2.2399,-2.2335,-2.2307,-2.224,-2.2219,-2.2218,-2.2152,-2.2187,-2.2144,-2.2103,-2.2103,-2.2122,-2.2264,-2.2309,-2.2389,-2.2209,-2.221,-2.2211,0,-2.287,-2.2826,-2.2834,-2.2743,-2.2732,-2.273,-2.2675,-2.2653,-2.2586,-2.2544,-2.2505,-2.2432,-2.2417,-2.2351,-2.2327,-2.23,-2.2277,-2.2241,-2.2241,-2.2234,-2.2163,-2.2258,-2.2413,-2.2425,-2.2226,-2.2225,-2.2224,0,-2.3018,-2.2961,-2.2957,-2.293,-2.2825,-2.2825,-2.2781,-2.2711,-2.2685,-2.2636,-2.2617,-2.2568,-2.2541,-2.2502,-2.2416,-2.2377,-2.24,-2.2328,-2.2361,-2.2363,-2.2371,-2.2372,-2.2523,-2.236,-2.236,-2.236,-2.2359,0,-2.3141,-2.3149,-2.3021,-2.3019,-2.3023,-2.2925,-2.2931,-2.2876,-2.2814,-2.2797,-2.2703,-2.2688,-2.2576,-2.2547,-2.2479,-2.2466,-2.2455,-2.2418,-2.24,-2.2426,-2.243,-2.2409,-2.2401,-2.2363,-2.2362,-2.2361,-2.2361,0,-2.3308,-2.3223,-2.3211,-2.3111,-2.3086,-2.3093,-2.3006,-2.2997,-2.2933,-2.2911,-2.2901,-2.2799,-2.2759,-2.2669,-2.2606,-2.256,-2.2562,-2.2531,-2.2585,-2.2574,-2.2611,-2.2608,-2.2753,-2.2765,-2.2597,-2.2599,-2.26,0,-2.3392,-2.3395,-2.3294,-2.3276,-2.3235,-2.3207,-2.3179,-2.3081,-2.3055,-2.2976,-2.2976,-2.2928,-2.2885,-2.2825,-2.2744,-2.2693,-2.2658,-2.2712,-2.265,-2.2673,-2.2654,-2.2655,-2.2652,-2.2726,-2.2728,-2.273,-2.2732,0,-2.3548,-2.3504,-2.3468,-2.3416,-2.3385,-2.3339,-2.3287,-2.3277,-2.3165,-2.314,-2.3097,-2.3064,-2.2996,-2.2949,-2.2884,-2.2835,-2.2763,-2.2752,-2.2756,-2.2782,-2.2812,-2.2793,-2.2621,-2.2749,-2.2747,-2.2746,-2.2745,-2.2744,-2.3674,-2.367,-2.3597,-2.3558,-2.3509,-2.3461,-2.3447,-2.3379,-2.3342,-2.328,-2.3223,-2.3185,-2.3111,-2.3017,-2.2972,-2.2938,-2.2903,-2.2911,-2.2912,-2.2915,-2.2924,-2.2818,-2.2926,-2.2926,-2.2925,-2.2925,-2.2924,0,-2.3823,-2.3769,-2.3735,-2.3665,-2.3633,-2.3568,-2.3505,-2.3482,-2.345,-2.3388,-2.3346,-2.3294,-2.3246,-2.3159,-2.3102,-2.3091,-2.3056,-2.3079,-2.3078,-2.3066,-2.2961,-2.2962,-2.3107,-2.3107,-2.3107,-2.3107,-2.3107,-2.3107,-2.3897,-2.3885,-2.3832,-2.3793,-2.3738,-2.3701,-2.367,-2.3624,-2.3573,-2.352,-2.3479,-2.3422,-2.3348,-2.3283,-2.3234,-2.3209,-2.3191,-2.3224,-2.3189,-2.3092,-2.3075,-2.3058,-2.3058,-2.3222,-2.3222,-2.3296,-2.3297,-2.3297]},{"header":{"parameterUnit":"m.s-1","parameterCategory":1,"la1":30.2991,"la2":30.254,"lo1":-89.0895,"lo2":-89.0444,"dy":0.0017,"dx":0.0017,"nx":28,"ny":28,"refTime":"2024-06-01T21:00:00:Z","depth":0,"parameterNumber":3,"parameterNumberName":"V-component_of_WINDS"},"data":[0,0,0,0,0,0,0,0,0,0,0,0,0,0,0,0,0,0,0,0,0,0,0,0,0,0,0,0,0,0,0,0,0,0,0,0,0,0,0,0,0,0,0,0,0,0,0,0,0,0,0,0,0,0,0,0,0,0,-1.4657,-1.4656,0,-1.4528,-1.4526,-1.4525,-1.4455,-1.4455,-1.4455,-1.4455,-1.4313,-1.431,-1.4306,0,0,0,0,0,0,0,0,0,0,0,0,0,-1.4832,-1.4829,-1.4657,-1.4655,-1.4654,-1.4528,-1.4526,-1.4524,-1.4455,-1.4455,-1.4455,-1.4455,-1.4315,-1.431,-1.4306,0,0,0,0,0,0,0,0,0,0,0,0,0,-1.4735,-1.4828,-1.4657,-1.4604,-1.4598,-1.4528,-1.4526,-1.4524,-1.4455,-1.4455,-1.4455,-1.4455,-1.4316,-1.4311,-1.4305,-1.4275,0,0,-1.4289,-1.4286,0,0,0,0,0,0,0,0,-1.474,-1.4728,-1.4614,-1.4608,-1.4601,-1.4508,-1.4536,-1.444,-1.4455,-1.4509,-1.4455,-1.4455,-1.4377,-1.4367,-1.4343,-1.4268,-1.4262,-1.4288,-1.4285,-1.4282,-1.4281,0,0,0,0,0,0,0,-1.4747,-1.4733,-1.4605,-1.4612,-1.4604,-1.4583,-1.4569,-1.4517,-1.4446,-1.4505,-1.4499,-1.4485,-1.4374,-1.4348,-1.4339,-1.426,-1.4288,-1.4283,-1.428,-1.4278,-1.4146,-1.4146,0,0,0,0,0,0,-1.4764,-1.4739,-1.461,-1.4602,-1.4672,-1.458,-1.4564,-1.4538,-1.4446,-1.4432,-1.4486,-1.4483,-1.4358,-1.4345,-1.4334,-1.4288,-1.4282,-1.4277,-1.4274,-1.4147,-1.4146,-1.4146,0,0,0,0,0,0,-1.4768,-1.4753,-1.4615,-1.4669,-1.465,-1.4577,-1.4548,-1.4535,-1.451,-1.4432,-1.4418,-1.4474,-1.4357,-1.4341,-1.4289,-1.4282,-1.4275,-1.427,-1.4147,-1.4146,-1.4146,-1.4199,0,0,0,0,0,0,-1.4773,-1.4755,-1.4746,-1.467,-1.4647,-1.4577,-1.4547,-1.4533,-1.4501,-1.4496,-1.4417,-1.4403,-1.4356,-1.4298,-1.4284,-1.4274,-1.4266,-1.4147,-1.4147,-1.4146,-1.4197,-1.42,-1.4203,0,0,0,0,0,-1.478,-1.4766,-1.4746,-1.4731,-1.4635,-1.4577,-1.4563,-1.4512,-1.4501,-1.4489,-1.4438,-1.4406,-1.4285,-1.4293,-1.4277,-1.4266,-1.4147,-1.4147,-1.4146,-1.4196,-1.42,-1.4203,0,0,0,0,0,0,-1.4841,-1.4755,-1.4732,-1.4694,-1.4643,-1.4565,-1.4549,-1.4518,-1.4468,-1.4464,-1.4399,-1.4382,-1.4334,-1.4294,-1.4305,-1.4227,-1.4212,-1.4209,-1.4256,-1.4259,-1.4261,-1.4271,-1.4261,0,0,0,0,0,-1.4851,-1.4814,-1.4739,-1.4712,-1.4688,-1.4623,-1.4595,-1.4559,-1.4503,-1.4481,-1.4426,-1.437,-1.4318,-1.4286,-1.4236,-1.4191,-1.4169,-1.4174,-1.4177,-1.418,-1.4177,-1.4144,-1.4144,-1.4145,-1.4145,-1.4145,0,0,-1.487,-1.4817,-1.4798,-1.4723,-1.4679,-1.4638,-1.4605,-1.4564,-1.4531,-1.4474,-1.4421,-1.4378,-1.431,-1.4261,-1.4236,-1.4226,-1.4172,-1.4179,-1.4182,-1.4177,-1.4144,-1.4144,-1.4144,-1.4144,-1.4144,-1.4144,0,0,-1.4882,-1.4841,-1.4812,-1.4769,-1.4704,-1.466,-1.4653,-1.4578,-1.4548,-1.4494,-1.4448,-1.4406,-1.4321,-1.4273,-1.4237,-1.4225,-1.4191,-1.421,-1.4224,-1.4193,-1.4193,-1.4192,-1.4183,-1.4182,-1.4207,-1.4207,-1.4208,0,-1.4913,-1.4853,-1.48,-1.476,-1.4726,-1.4673,-1.4639,-1.4599,-1.452,-1.4495,-1.4485,-1.4373,-1.4325,-1.426,-1.4256,-1.4231,-1.4216,-1.4219,-1.4198,-1.4197,-1.4195,-1.4186,-1.4183,-1.421,-1.421,-1.4209,-1.4209,0,-1.4891,-1.4849,-1.4833,-1.4759,-1.4722,-1.4686,-1.4623,-1.4592,-1.4557,-1.4513,-1.4454,-1.4393,-1.4326,-1.4308,-1.4275,-1.4236,-1.4232,-1.4211,-1.4194,-1.4199,-1.4188,-1.4185,-1.4214,-1.4213,-1.4212,-1.4211,0,0,-1.4941,-1.4836,-1.4831,-1.4794,-1.4716,-1.4681,-1.4639,-1.4576,-1.4547,-1.4493,-1.4453,-1.4379,-1.4358,-1.4317,-1.4276,-1.4249,-1.4237,-1.423,-1.4227,-1.4231,-1.4185,-1.42,-1.4197,-1.4214,-1.4214,-1.4213,-1.4189,0,-1.494,-1.4868,-1.4816,-1.4761,-1.4719,-1.4665,-1.4627,-1.4572,-1.4528,-1.4481,-1.443,-1.4378,-1.4356,-1.433,-1.4301,-1.4245,-1.4227,-1.4246,-1.4171,-1.4169,-1.4189,-1.4193,-1.4209,-1.4191,-1.4186,-1.4185,-1.4184,0,-1.4931,-1.4879,-1.4821,-1.4742,-1.4722,-1.4691,-1.4625,-1.4583,-1.4517,-1.4486,-1.4439,-1.4396,-1.4343,-1.4331,-1.4254,-1.4268,-1.4234,-1.4201,-1.4198,-1.4188,-1.4177,-1.4179,-1.4184,-1.418,-1.4179,-1.4179,-1.4179,0,-1.4969,-1.4885,-1.4837,-1.4808,-1.4717,-1.4694,-1.4655,-1.4589,-1.4552,-1.4493,-1.4467,-1.4402,-1.4365,-1.4313,-1.4251,-1.4249,-1.4178,-1.4163,-1.4147,-1.4148,-1.4134,-1.4135,-1.413,-1.4116,-1.4116,-1.4116,-1.4116,0,-1.4973,-1.4938,-1.4853,-1.4824,-1.478,-1.4719,-1.4676,-1.4631,-1.4572,-1.4529,-1.4477,-1.4436,-1.4359,-1.4306,-1.4257,-1.4198,-1.4182,-1.4151,-1.4138,-1.4155,-1.4159,-1.4131,-1.4129,-1.4115,-1.4115,-1.4115,-1.4115,0,-1.5009,-1.4951,-1.4895,-1.4813,-1.479,-1.4762,-1.4689,-1.4655,-1.4606,-1.4551,-1.4535,-1.4457,-1.4392,-1.4326,-1.4238,-1.4204,-1.4145,-1.4129,-1.4169,-1.4161,-1.4147,-1.4148,-1.4122,-1.4114,-1.4108,-1.4108,-1.4108,0,-1.5015,-1.4987,-1.49,-1.4869,-1.4831,-1.4781,-1.4743,-1.4679,-1.464,-1.456,-1.4534,-1.4466,-1.4408,-1.4306,-1.4239,-1.4169,-1.4149,-1.4144,-1.4138,-1.4154,-1.4144,-1.4146,-1.414,-1.4146,-1.4147,-1.4147,-1.4148,0,-1.5029,-1.5001,-1.495,-1.4887,-1.4844,-1.4791,-1.4735,-1.4711,-1.4635,-1.4593,-1.4528,-1.4483,-1.4392,-1.4323,-1.4245,-1.4197,-1.4157,-1.415,-1.4142,-1.4158,-1.4181,-1.4164,-1.4172,-1.4151,-1.415,-1.415,-1.415,-1.415,-1.5047,-1.5018,-1.4952,-1.4895,-1.4847,-1.4795,-1.4758,-1.4704,-1.465,-1.4573,-1.4537,-1.447,-1.4396,-1.4288,-1.4241,-1.4183,-1.4172,-1.4162,-1.4158,-1.4156,-1.4158,-1.4191,-1.4169,-1.4168,-1.4168,-1.4168,-1.4168,0,-1.5056,-1.501,-1.4959,-1.4883,-1.4837,-1.4806,-1.4741,-1.4703,-1.4646,-1.4583,-1.4527,-1.4448,-1.4379,-1.4305,-1.423,-1.4197,-1.4177,-1.4179,-1.418,-1.4168,-1.4174,-1.4187,-1.4197,-1.4197,-1.4197,-1.4197,-1.4197,-1.4197,-1.5056,-1.5003,-1.4966,-1.4886,-1.4838,-1.4775,-1.474,-1.4689,-1.4638,-1.4554,-1.4497,-1.445,-1.438,-1.4298,-1.4231,-1.421,-1.4183,-1.4191,-1.4164,-1.4171,-1.4169,-1.4167,-1.4179,-1.4186,-1.4186,-1.4162,-1.4162,-1.4162]}]]